Regional Weather Roundup
Issued by NWS

Home | Current Version | Previous Version | Graphics & Text | Print | Product List | Glossary On
Versions: 1 2 3 4 5 6 7 8 9 10 11 12 13 14 15 16 17 18 19 20 21 22 23 24 25 26 27 28 29 30 31 32 33 34 35 36 37 38 39 40 41 42 43 44 45 46 47 48 49 50
000
ASUS43 KMKX 260111
RWRWI

WISCONSIN REGIONAL WEATHER ROUNDUP
NATIONAL WEATHER SERVICE MILWAUKEE/SULLIVAN WI
800 PM CDT WED MAY 25 2016

NOTE: "FAIR" INDICATES FEW OR NO CLOUDS BELOW 12,000 FEET WITH NO
SIGNIFICANT WEATHER AND/OR OBSTRUCTIONS TO VISIBILITY.

WIZ001-002-006>008-014>016-023>028-260200-
NORTHWEST WISCONSIN

CITY           SKY/WX    TMP DP  RH WIND       PRES   REMARKS
SUPERIOR ARPT  CLOUDY    43  43  99 NE10G20   29.93F
ASHLAND        HVY RAIN  52  52 100 N6        29.93S FOG
HAYWARD        RAIN      53  51  93 NE9       29.88F FOG
SIREN          CLOUDY    60  57  91 NE6       29.86S
CUMBERLAND     PTCLDY    63  61  94 NE7       29.86R
RICE LAKE      MOCLDY    63  61  93 N6        29.86R
CHETEK         MOCLDY    64  63  99 CALM      29.85R
LADYSMITH      LGT RAIN  65  64  96 N6        29.84F
EAU CLAIRE     CLOUDY    67  64  90 CALM      29.83R
MENOMONIE      MOCLDY    69  69  98 CALM      29.83S
NEW RICHMOND   CLOUDY    69  61  76 CALM      29.84R
OSCEOLA        CLOUDY    67  65  92 NE8       29.86R
$$

WIZ003>005-009-010-017-018-260200-
NORTH CENTRAL WISCONSIN

CITY           SKY/WX    TMP DP  RH WIND       PRES   REMARKS
MANITOWISH WTR NOT AVBL
ARBOR VITAE    HVY RAIN  63  61  93 CALM      29.91R
WOODRUFF       HVY RAIN  63  61  93 CALM      29.91R
RHINELANDER    RAIN      62  60  93 SE9       29.89F FOG
EAGLE RIVER    HVY RAIN  62  60  95 E9        29.90S
LAND O LAKES   RAIN      63  61  93 E6        29.92S
PHILLIPS       RAIN      63  62  97 E7        29.86S
TOMAHAWK       RAIN      61  59  94 E7        29.85F
MEDFORD        CLOUDY    62  62 100 S3        29.85F
MERRILL        LGT RAIN  63  63 100 SE10      29.87S
$$

WIZ029-030-035-036-043>047-260200-
CENTRAL WISCONSIN

CITY           SKY/WX    TMP DP  RH WIND       PRES   REMARKS
WAUSAU         CLOUDY    64  32  30 E10       29.85S
MOSINEE        LGT RAIN  63  63 100 E8        29.87R
MARSHFIELD     LGT RAIN  66  62  87 W9G17     29.86R
STEVENS POINT  LGT RAIN  61  60  96 SE8G16    29.87R
WAUPACA        CLOUDY    64  64  98 E9        29.88S
WAUTOMA        CLOUDY    64  63  96 E8        29.87S
WISC RAPIDS    CLOUDY    65  61  87 SE9       29.87S
CAMP DOUGLAS   PTCLDY    66  66 100 E10       29.85S
$$

WIZ011>013-019>022-031-037>040-048>050-260200-
NORTHEAST WISCONSIN

CITY           SKY/WX    TMP DP  RH WIND       PRES   REMARKS
ANTIGO         LGT RAIN  59  59  97 E12G18    29.90R
SHAWANO        LGT RAIN  61  59  91 E12       29.90F
OCONTO         CLOUDY   N/A N/A N/A CALM      29.92F
STURGEON BAY   NOT AVBL
GREEN BAY      CLOUDY    61  58  90 NE8       29.92R
MANITOWOC      LGT RAIN  55  52  89 N8        29.91S
APPLETON       TSTM      59  59 100 NE10      29.89F
CLINTONVILLE   LGT RAIN  61  59  94 E15       29.88F
OSHKOSH        TSTM      61  57  87 N6        29.91R
$$

WIZ032>034-041-042-053>061-260200-
SOUTHWEST WISCONSIN

CITY           SKY/WX    TMP DP  RH WIND       PRES   REMARKS
LA CROSSE      CLEAR     76  64  66 S5        29.82R
SPARTA         MOCLDY    75  65  72 CALM      29.85R
VIROQUA        CLEAR     75  61  61 W6        29.86R
BOSCOBEL       MOCLDY    77  64  64 CALM      29.83R
PRAIRIE DU CHI PTCLDY    79  57  45 W7        29.82R HX  80
PLATTEVILLE    PTCLDY    79  60  52 SW10      29.86R HX  80
$$

WIZ056-057-062-063-064-067-068-260200-
SOUTH CENTRAL WISCONSIN

CITY           SKY/WX    TMP DP  RH WIND       PRES   REMARKS
REEDSBURG      MOCLDY    71  67  87 CALM      29.84R
BARABOO/DELLS  LGT RAIN  70  64  79 NE3       29.85R
LONE ROCK      MOCLDY    80  61  52 W10       29.84R HX  81
MINERAL POINT  PTCLDY    79  59  50 SW9       29.87R HX  80
MADISON        MOCLDY    77  63  61 S15       29.84R
MIDDLETON      MOCLDY    80  60  50 SW12      29.85R HX  81
WATERTOWN      MOCLDY    69  69 100 SE9       29.87S
MONROE         MOCLDY    72  64  78 SE10      29.88R
JANESVILLE     MOCLDY    70  66  88 SE12      29.87F
$$

WIZ051-052-058>065-066-070>072-260200-
SOUTHEAST WISCONSIN

CITY           SKY/WX    TMP DP  RH WIND       PRES   REMARKS
MILWAUKEE      LGT RAIN  54  52  93 NE5       29.93R FOG
WAUKESHA       CLOUDY    61  57  88 E7        29.92R FOG
MILWAUKEE/TIMM CLOUDY    57  54  88 E5        29.92S FOG
RACINE         LGT RAIN  56  53  90 NE3       29.94R FOG
BURLINGTON     LGT RAIN  67  64  88 CALM      29.92R
KENOSHA        LGT RAIN  66  63  90 SE7       29.91R
FOND DU LAC    LGT RAIN  66  61  84 E3        29.89R
SHEBOYGAN      LGT RAIN  52  50  93 NE8       29.91F
WEST BEND      RAIN      59  55  88 CALM      29.94R
JUNEAU         CLOUDY    66  63  90 E14       29.88F
$$

LSZ147-162-260200-
LAKE SUPERIOR

STATION/POSITION TIME  TEMP    WIND        PRES    WAVE
                       AIR SEA DIR/SP/G            HT/PER
                 (UTC) (F)     (DEG/KT/KT) (MB)    (FT/S)
W MID LAKE BUOY  0050   41 38   50/ 16/ 17 1013.5F   4/ 5
DEVILS ISLAND    0000   43     300/  6/  9 1015.2R
SAXON HARBOR     0000   47     250/  3/  5 1013.5R
$$

LMZ867-665-643>646-260200-
LAKE MICHIGAN

STATION/POSITION TIME  TEMP    WIND        PRES    WAVE
                       AIR SEA DIR/SP/G            HT/PER
                 (UTC) (F)     (DEG/KT/KT) (MB)    (FT/S)
CHAMBERS ISLAND  0040   58      20/  3/  4 1013.9F
N MID LAKE BUOY  0050   50 45   60/  8/ 10 1013.5F   1
NORTHPORT PIER   0100   54     160/  2/ 18 1013.5F
SISTER BAY       0019   59     130/  7/  9   N/A
ALGOMA LAKESHORE 0017           40/  8/ 11   N/A
KEWAUNEE LAKESHO 0000           20/ 11/ 14 1013.3F
SHEBOYGAN LAKESH 0100   49      20/  7/  8 1013.4F
PORT WASHINGTON  0000   54      50/  6/ 10 1013.9
S MID LAKE BUOY  0050   57 52  160/ 17/ 17 1013.2R   0
KENOSHA   LAKESH 0100   62     190/ 10/ 15 1012.9R
$$

TC  - TEMPERATURE IN CELSIUS
VSB - VISIBILITY IN STATUTE MILES
WCI - WIND CHILL INDEX
HX  - HEAT INDEX




USA.gov is the U.S. government's official web portal to all federal, state and local government web resources and services.